This is the latest recevied weather packets stored in our database for station/object KF7SOJ. If no packets are shown the sender has not sent any weather packets the latest 10 day(s).
| Time | Temp. | Humidity | Pressure | Rain* | Wind** | Luminosity | Snow |
|---|---|---|---|---|---|---|---|
| 1777870711 | 15° C | 33% | 924.4 hPa | 0 mm | - | 0 W/m² | - |
| 1777870406 | 15.56° C | 32% | 924.7 hPa | 0 mm | - | 0 W/m² | - |
| 1777870103 | 15.56° C | 31% | 924.6 hPa | 0 mm | - | 0 W/m² | - |
| 1777869801 | 15.56° C | 31% | 924.7 hPa | 0 mm | - | 0 W/m² | - |
| 1777869498 | 15.56° C | 31% | 924.7 hPa | 0 mm | - | 0 W/m² | - |
| 1777869195 | 15.56° C | 31% | 924.6 hPa | 0 mm | - | 0 W/m² | - |
| 1777868892 | 15.56° C | 31% | 924.4 hPa | 0 mm | - | 0 W/m² | - |
| 1777868588 | 15.56° C | 31% | 924.4 hPa | 0 mm | - | 0 W/m² | - |
| 1777868285 | 15.56° C | 31% | 924.4 hPa | 0 mm | - | 0 W/m² | - |
| 1777867981 | 15.56° C | 30% | 924.4 hPa | 0 mm | - | 0 W/m² | - |
| 1777867677 | 15.56° C | 30% | 924.3 hPa | 0 mm | - | 0 W/m² | - |
| 1777867375 | 16.11° C | 30% | 924.3 hPa | 0 mm | - | 0 W/m² | - |
| 1777867070 | 16.11° C | 29% | 924.6 hPa | 0 mm | - | 0 W/m² | - |
| 1777866768 | 16.67° C | 28% | 924.3 hPa | 0 mm | - | 0 W/m² | - |
| 1777866465 | 16.67° C | 28% | 924.3 hPa | 0 mm | - | 0 W/m² | - |
| 1777865860 | 16.67° C | 29% | 924.2 hPa | 0 mm | - | 0 W/m² | - |
| 1777865557 | 16.67° C | 29% | 923.9 hPa | 0 mm | - | 0 W/m² | - |
| 1777865254 | 16.67° C | 29% | 924.1 hPa | 0 mm | - | 0 W/m² | - |
| 1777864648 | 16.67° C | 29% | 924.1 hPa | 0 mm | - | 0 W/m² | - |
| 1777864041 | 17.22° C | 29% | 923.8 hPa | 0 mm | - | 0 W/m² | - |
| 1777863739 | 17.22° C | 30% | 924.1 hPa | 0 mm | - | 0 W/m² | - |
| 1777847673 | 25.56° C | 19% | 924.9 hPa | 0 mm | - | 676 W/m² | - |
| 1777845856 | 24.44° C | 22% | 925.3 hPa | 0 mm | - | 855 W/m² | - |
| 1777844040 | 24.44° C | 22% | 925.9 hPa | 0 mm | - | 831 W/m² | - |
| 1777843131 | 24.44° C | 22% | 926.1 hPa | 0 mm | - | 862 W/m² | - |
* Rain latest hour (hover to see other rain measurements)
** Current wind speed in m/s (hover to see current wind gust speed)